�������l�o���
Date,Time,MP-1(��Sv/h),MP-2(��Sv/h),MP-3(��Sv/h),MP-4(��Sv/h),MP-5(��Sv/h),MP-6(��Sv/h),MP-7(��Sv/h),MP-8(��Sv/h),����,����(m/s),���J
2018/11/20,00:00,0.773,1.161,0.818,1.465,1.055,0.452,0.801,0.755,�k,6.7,��
2018/11/20,00:10,0.773,1.167,0.817,1.463,1.055,0.451,0.802,0.757,�k�k��,7.5,��
2018/11/20,00:20,0.772,1.163,0.818,1.466,1.054,0.452,0.801,0.757,�k�k��,7.8,��
2018/11/20,00:30,0.771,1.169,0.817,1.465,1.053,0.453,0.801,0.756,�k�k��,8.0,��
2018/11/20,00:40,0.772,1.166,0.819,1.467,1.053,0.453,0.800,0.758,�k�k��,9.0,��
2018/11/20,00:50,0.773,1.167,0.818,1.465,1.053,0.453,0.801,0.758,�k�k��,8.3,��
2018/11/20,01:00,0.770,1.164,0.819,1.465,1.056,0.453,0.800,0.757,�k�k��,7.7,��
2018/11/20,01:10,0.772,1.167,0.817,1.464,1.054,0.451,0.800,0.756,�k�k��,7.5,��
2018/11/20,01:20,0.772,1.168,0.818,1.465,1.053,0.454,0.802,0.757,�k�k��,7.3,��
2018/11/20,01:30,0.771,1.163,0.819,1.466,1.054,0.452,0.800,0.757,�k�k��,7.4,��
2018/11/20,01:40,0.772,1.167,0.818,1.465,1.055,0.451,0.801,0.755,�k�k��,6.9,��
2018/11/20,01:50,0.771,1.165,0.817,1.465,1.054,0.453,0.799,0.755,�k�k��,7.4,��
2018/11/20,02:00,0.772,1.165,0.819,1.466,1.052,0.452,0.801,0.755,�k�k��,8.4,��
2018/11/20,02:10,0.772,1.167,0.817,1.464,1.054,0.451,0.800,0.756,�k�k��,10.5,��
2018/11/20,02:20,0.772,1.167,0.818,1.467,1.055,0.451,0.799,0.756,�k�k��,10.6,��
2018/11/20,02:30,0.771,1.165,0.819,1.464,1.053,0.451,0.800,0.757,�k,9.7,��
2018/11/20,02:40,0.772,1.166,0.818,1.465,1.055,0.454,0.802,0.756,�k�k��,9.4,��
2018/11/20,02:50,0.771,1.165,0.818,1.466,1.054,0.453,0.801,0.754,�k�k��,9.1,��
2018/11/20,03:00,0.771,1.168,0.817,1.465,1.051,0.453,0.801,0.757,�k,8.5,��
2018/11/20,03:10,0.771,1.166,0.815,1.466,1.055,0.451,0.801,0.755,�k�k��,9.7,��
2018/11/20,03:20,0.771,1.166,0.819,1.464,1.053,0.452,0.802,0.757,�k�k��,9.4,��
2018/11/20,03:30,0.773,1.167,0.818,1.465,1.053,0.451,0.802,0.756,�k�k��,9.3,��
2018/11/20,03:40,0.770,1.164,0.819,1.466,1.057,0.453,0.801,0.757,�k�k��,10.2,��
2018/11/20,03:50,0.770,1.165,0.817,1.466,1.052,0.452,0.800,0.755,�k�k��,10.3,��
2018/11/20,04:00,0.772,1.164,0.819,1.466,1.055,0.451,0.801,0.756,�k�k��,10.2,��
2018/11/20,04:10,0.771,1.167,0.818,1.466,1.054,0.451,0.801,0.756,�k�k��,9.0,��
2018/11/20,04:20,0.772,1.167,0.817,1.466,1.052,0.451,0.801,0.757,�k�k��,9.3,��
2018/11/20,04:30,0.771,1.166,0.818,1.466,1.055,0.451,0.802,0.757,�k�k��,8.6,��
2018/11/20,04:40,0.770,1.166,0.818,1.468,1.054,0.453,0.801,0.756,�k�k��,8.5,��
2018/11/20,04:50,0.772,1.165,0.818,1.465,1.055,0.452,0.801,0.756,�k�k��,8.6,��
2018/11/20,05:00,0.771,1.167,0.818,1.465,1.053,0.451,0.802,0.757,�k�k��,10.2,��
2018/11/20,05:10,0.772,1.167,0.818,1.467,1.053,0.451,0.801,0.758,�k�k��,11.1,��
2018/11/20,05:20,0.772,1.167,0.819,1.465,1.055,0.452,0.801,0.757,�k�k��,7.9,��
2018/11/20,05:30,0.771,1.164,0.819,1.467,1.055,0.452,0.801,0.758,�k�k��,6.0,��
2018/11/20,05:40,0.770,1.168,0.820,1.464,1.053,0.452,0.800,0.756,�k�k��,6.1,��
2018/11/20,05:50,0.771,1.168,0.818,1.469,1.054,0.451,0.800,0.758,�k�k��,7.1,��
2018/11/20,06:00,0.770,1.167,0.818,1.466,1.054,0.450,0.801,0.756,�k��,8.3,��
2018/11/20,06:10,0.771,1.162,0.820,1.468,1.055,0.450,0.801,0.755,�k�k��,7.8,��
2018/11/20,06:20,0.772,1.165,0.817,1.465,1.054,0.451,0.801,0.757,�k�k��,8.3,��
2018/11/20,06:30,0.770,1.166,0.817,1.465,1.054,0.452,0.800,0.756,�k�k��,8.8,��
2018/11/20,06:40,0.772,1.166,0.819,1.470,1.054,0.452,0.801,0.757,�k�k��,8.7,��
2018/11/20,06:50,0.772,1.166,0.819,1.466,1.054,0.452,0.799,0.756,�k�k��,8.6,��
2018/11/20,07:00,0.773,1.166,0.819,1.467,1.055,0.451,0.799,0.755,�k�k��,8.0,��
2018/11/20,07:10,0.772,1.166,0.818,1.466,1.053,0.451,0.801,0.757,�k�k��,8.7,��
2018/11/20,07:20,0.772,1.165,0.818,1.465,1.054,0.450,0.801,0.756,�k�k��,7.5,��
2018/11/20,07:30,0.771,1.166,0.818,1.467,1.055,0.452,0.802,0.756,�k�k��,7.1,��
2018/11/20,07:40,0.772,1.168,0.817,1.466,1.054,0.452,0.800,0.757,�k��,6.4,��
2018/11/20,07:50,0.771,1.168,0.817,1.467,1.052,0.452,0.801,0.756,�k�k��,7.2,��
2018/11/20,08:00,0.772,1.166,0.819,1.465,1.054,0.453,0.800,0.756,�k�k��,6.7,��
2018/11/20,08:10,0.771,1.168,0.819,1.470,1.055,0.452,0.803,0.757,�k��,6.2,��
2018/11/20,08:20,0.773,1.167,0.818,1.467,1.055,0.451,0.802,0.757,�k�k��,5.5,��
2018/11/20,08:30,0.773,1.166,0.820,1.467,1.054,0.452,0.802,0.757,�k�k��,5.6,��
2018/11/20,08:40,0.772,1.166,0.819,1.466,1.057,0.451,0.804,0.759,�k�k��,6.1,��
2018/11/20,08:50,0.774,1.167,0.818,1.468,1.055,0.451,0.803,0.758,�k�k��,7.0,��
2018/11/20,09:00,0.774,1.165,0.818,1.468,1.055,0.451,0.802,0.758,�k�k��,6.1,��
2018/11/20,09:10,0.773,1.162,0.820,1.467,1.056,0.453,0.800,0.759,�k�k��,6.4,��
2018/11/20,09:20,0.773,1.163,0.817,1.466,1.056,0.453,0.798,0.758,�k�k��,5.7,��
2018/11/20,09:30,0.773,1.165,0.820,1.469,1.055,0.453,0.801,0.759,�k�k��,5.2,��
2018/11/20,09:40,0.775,1.164,0.816,1.465,1.056,0.455,0.801,0.758,�k,6.4,��
2018/11/20,09:50,0.775,1.166,0.818,1.468,1.056,0.453,0.801,0.756,�k,5.0,��
2018/11/20,10:00,0.776,1.163,0.818,1.470,1.055,0.453,0.801,0.758,�k�k��,7.6,��
2018/11/20,10:10,0.775,1.168,0.819,1.469,1.056,0.453,0.801,0.760,�k,6.0,��
2018/11/20,10:20,0.776,1.167,0.819,1.470,1.055,0.454,0.800,0.758,�k�k��,6.8,��
2018/11/20,10:30,0.775,1.165,0.818,1.470,1.058,0.453,0.801,0.759,�k�k��,6.2,��
2018/11/20,10:40,0.776,1.164,0.819,1.471,1.060,0.452,0.800,0.757,�k�k��,5.9,��
2018/11/20,10:50,0.776,1.166,0.819,1.471,1.058,0.453,-,0.757,�k�k��,6.3,��
2018/11/20,11:00,0.777,1.166,0.819,1.471,1.061,0.453,-,0.759,�k�k��,5.4,��
2018/11/20,11:10,0.777,1.166,0.820,1.471,1.059,0.452,-,0.759,�k�k��,5.3,��
2018/11/20,11:20,0.776,1.169,0.819,1.471,1.062,0.453,-,0.760,�k�k��,5.8,��
2018/11/20,11:30,0.778,1.168,0.820,1.470,1.057,0.453,-,0.760,�k�k��,5.4,��
2018/11/20,11:40,0.775,1.171,0.821,1.470,1.059,0.453,-,0.759,�k�k��,4.9,��
2018/11/20,11:50,0.777,1.168,0.822,1.471,1.059,0.453,-,0.759,�k��,3.8,��
2018/11/20,12:00,0.778,1.168,0.822,1.472,1.058,0.454,-,0.758,�k��,3.6,��
2018/11/20,12:10,0.777,1.170,0.821,1.472,1.058,0.455,-,0.760,�k�k��,4.0,��
2018/11/20,12:20,0.777,1.169,0.823,1.473,1.061,0.452,-,0.760,�k�k��,3.6,��
2018/11/20,12:30,0.777,1.167,0.823,1.472,1.059,0.454,-,0.760,�k�k��,3.9,��
2018/11/20,12:40,0.777,1.169,0.824,1.469,1.058,0.455,-,0.757,�k�k��,3.5,��
2018/11/20,12:50,0.778,1.169,0.823,1.474,1.059,0.454,-,0.757,�k��,3.4,��
2018/11/20,13:00,0.779,1.167,0.822,1.475,1.061,0.456,-,0.756,�k,2.6,��
2018/11/20,13:10,0.779,1.167,0.820,1.471,1.061,0.455,-,0.756,�k��,2.6,��
2018/11/20,13:20,0.778,1.169,0.819,1.471,1.060,0.455,-,0.754,���k��,2.0,��
2018/11/20,13:30,0.779,1.167,0.821,1.471,1.061,0.454,-,0.757,���k��,2.3,��
2018/11/20,13:40,0.778,1.168,0.820,1.470,1.062,0.455,-,0.755,���k��,2.2,��
2018/11/20,13:50,0.778,1.167,0.823,1.470,1.061,0.455,-,0.756,���k��,2.5,��
2018/11/20,14:00,0.777,1.166,0.821,1.474,1.059,0.453,-,0.757,�k��,1.7,��
2018/11/20,14:10,0.779,1.167,0.824,1.472,1.062,0.455,-,0.757,���쓌,1.4,��
2018/11/20,14:20,0.778,1.169,0.821,1.472,1.062,0.453,-,0.757,��,0.9,��
2018/11/20,14:30,0.779,1.172,0.824,1.474,1.060,0.454,-,0.756,���k��,1.5,��
2018/11/20,14:40,0.779,1.171,0.821,1.471,1.063,0.455,-,0.754,�쓌,2.6,��
2018/11/20,14:50,0.777,1.172,0.820,1.471,1.065,0.456,-,0.757,�쓌,2.6,��
2018/11/20,15:00,0.777,1.172,0.822,1.471,1.065,0.454,-,0.760,���쓌,2.0,��
2018/11/20,15:10,0.776,1.177,0.821,1.472,1.062,0.454,-,0.760,���쓌,1.5,��
2018/11/20,15:20,0.777,1.176,0.823,1.472,1.063,0.455,-,0.758,���쓌,1.5,��
2018/11/20,15:30,0.779,1.175,0.825,1.471,1.061,0.455,-,0.759,��,1.5,��
2018/11/20,15:40,0.777,1.174,0.822,1.470,1.061,0.455,-,0.759,���k��,1.1,��
2018/11/20,15:50,0.777,1.177,0.823,1.472,1.062,0.454,0.802,0.758,�k��,1.2,��
2018/11/20,16:00,0.777,1.178,0.825,1.473,1.059,0.455,0.803,0.758,�k,1.7,��
2018/11/20,16:10,0.776,1.178,0.825,1.470,1.061,0.455,0.805,0.758,�k�k��,3.8,��
2018/11/20,16:20,0.778,1.179,0.823,1.473,1.062,0.455,0.804,0.757,�k�k��,4.9,�L
2018/11/20,16:30,0.778,1.181,0.823,1.474,1.064,0.455,0.803,0.758,�k,6.0,�L
2018/11/20,16:40,0.780,1.180,0.824,1.474,1.065,0.456,0.804,0.758,�k,6.6,�L
2018/11/20,16:50,0.782,1.181,0.824,1.474,1.065,0.458,0.803,0.761,�k�k��,5.9,�L
2018/11/20,17:00,0.782,1.180,0.827,1.474,1.066,0.457,0.803,0.760,�k�k��,4.3,�L
2018/11/20,17:10,0.781,1.182,0.828,1.475,1.066,0.458,0.801,0.759,�k��,4.1,��
2018/11/20,17:20,0.780,1.182,0.827,1.475,1.063,0.457,0.802,0.760,�k��,5.6,�L
2018/11/20,17:30,0.779,1.180,0.825,1.476,1.065,0.455,0.803,0.759,���k��,4.7,�L
2018/11/20,17:40,0.778,1.179,0.824,1.476,1.062,0.455,0.802,0.758,���k��,6.1,�L
2018/11/20,17:50,0.780,1.181,0.826,1.472,1.064,0.457,0.801,0.759,���k��,6.1,��
2018/11/20,18:00,0.778,1.177,0.825,1.476,1.064,0.455,0.802,0.760,�k��,6.0,��
2018/11/20,18:10,0.779,1.176,0.824,1.474,1.063,0.455,0.802,0.760,���k��,6.8,��
2018/11/20,18:20,0.776,1.178,0.826,1.476,1.063,0.455,0.801,0.759,���k��,7.2,��
2018/11/20,18:30,0.783,1.176,0.823,1.476,1.064,0.453,0.801,0.758,���k��,6.9,��
2018/11/20,18:40,0.779,1.176,0.824,1.473,1.064,0.455,0.801,0.758,���k��,6.2,�L
2018/11/20,18:50,0.778,1.178,0.824,1.474,1.062,0.454,0.802,0.758,���k��,5.0,��
2018/11/20,19:00,0.778,1.178,0.823,1.473,1.061,0.454,0.800,0.758,�k��,4.7,��
2018/11/20,19:10,0.776,1.176,0.826,1.475,1.063,0.454,0.803,0.759,�k��,4.3,��
2018/11/20,19:20,0.777,1.177,0.822,1.473,1.060,0.453,0.802,0.758,�k��,5.0,��
2018/11/20,19:30,0.776,1.176,0.822,1.473,1.061,0.454,0.801,0.758,�k��,5.3,��
2018/11/20,19:40,0.776,1.175,0.823,1.473,1.063,0.453,0.802,0.759,�k��,5.6,��
2018/11/20,19:50,0.777,1.175,0.822,1.472,1.060,0.454,0.802,0.758,�k��,5.4,��
2018/11/20,20:00,0.774,1.174,0.822,1.476,1.061,0.454,0.803,0.758,�k��,5.9,��
2018/11/20,20:10,0.776,1.173,0.824,1.474,1.062,0.453,0.801,0.759,���k��,4.9,��
2018/11/20,20:20,0.775,1.176,0.824,1.473,1.064,0.455,0.801,0.758,���k��,4.7,��
2018/11/20,20:30,0.775,1.177,0.822,1.472,1.062,0.453,0.801,0.757,���k��,4.7,��
2018/11/20,20:40,0.777,1.175,0.824,1.474,1.062,0.452,0.800,0.758,���k��,4.4,��
2018/11/20,20:50,0.776,1.178,0.822,1.472,1.063,0.452,0.802,0.758,���k��,3.6,��
2018/11/20,21:00,0.776,1.175,0.821,1.472,1.060,0.454,0.801,0.759,�k��,2.3,��
2018/11/20,21:10,0.775,1.174,0.822,1.471,1.060,0.453,0.801,0.758,�k��,1.9,��
2018/11/20,21:20,0.774,1.175,0.820,1.472,1.060,0.452,0.802,0.757,-,CALM,��
2018/11/20,21:30,0.774,1.176,0.821,1.471,1.061,0.454,0.802,0.759,-,CALM,��
2018/11/20,21:40,0.775,1.178,0.819,1.473,1.060,0.453,0.801,0.759,-,CALM,��
2018/11/20,21:50,0.775,1.176,0.823,1.474,1.061,0.454,0.801,0.758,��,0.6,��
2018/11/20,22:00,0.776,1.174,0.821,1.472,1.063,0.453,0.801,0.759,��,1.5,��
2018/11/20,22:10,0.775,1.175,0.821,1.473,1.058,0.454,0.802,0.758,���쐼,2.0,��
2018/11/20,22:20,0.774,1.172,0.821,1.474,1.064,0.454,0.800,0.757,���k��,2.6,��
2018/11/20,22:30,0.775,1.175,0.821,1.472,1.061,0.453,0.802,0.757,���k��,2.3,��
2018/11/20,22:40,0.774,1.175,0.822,1.472,1.061,0.454,0.801,0.758,��,2.6,��
2018/11/20,22:50,0.774,1.176,0.822,1.471,1.060,0.453,0.799,0.758,��,3.4,��
2018/11/20,23:00,0.775,1.175,0.822,1.472,1.061,0.452,0.802,0.758,��,4.2,��
2018/11/20,23:10,0.774,1.176,0.822,1.472,1.062,0.452,0.801,0.758,��,3.5,��
2018/11/20,23:20,0.775,1.173,0.821,1.472,1.059,0.453,0.802,0.757,���쐼,3.8,��
2018/11/20,23:30,0.774,1.176,0.823,1.474,1.060,0.452,0.801,0.757,��,4.6,��
2018/11/20,23:40,0.774,1.172,0.823,1.471,1.062,0.451,0.801,0.758,��,5.4,��
2018/11/20,23:50,0.773,1.174,0.822,1.472,1.061,0.454,0.801,0.758,��,5.9,��
